Weather History for Owosso, MI

Change the Weather History Date:

Saturday, September 21, 2013

  Actual Average (KFNT) Record (KFNT)
Temperature  
Mean Temperature 61 °F 59 °F  
Max Temperature 68 °F 70 °F 90 °F (1931)
Min Temperature 54 °F 48 °F 32 °F (1956)
Degree Days  
Heating Degree Days 4 7  
Month to date heating degree days 86  
Since 1 July heating degree days 130  
Cooling Degree Days 0 1  
Month to date cooling degree days 40  
Year to date cooling degree days 517  
Growing Degree Days 11 (Base 50)    
Moisture  
Dew Point 51 °F    
Average Humidity 71    
Maximum Humidity 93    
Minimum Humidity 41    
Precipitation  
Precipitation 0.00 in 0.14 in 1.73 in (1947)
Month to date precipitation 2.66  
Year to date precipitation 23.22  
Snow  
Snow 0.00 in 0.00 in 0.00 in ()
Month to date snowfall 0.0  
Since 1 July snowfall 0.0  
Since 1 September snowfall 0.0  
Snow Depth -    
Sea Level Pressure  
Sea Level Pressure 29.77 in    
Wind  
Wind Speed 8 mph (WNW)    
Max Wind Speed 16 mph    
Max Gust Speed 23 mph    
Visibility 10 miles    
Events Rain    
T = Trace of Precipitation, MM = Missing Value Source: NWS Daily Summary

Daily Weather History Graph

Daily Weather History Graph

Search for Another Location

Airport:

Trip Planner

Search our weather history database for the weather conditions in past years. The results will help you decide how hot, cold, wet, or windy it might be!

Date:

Astronomy

Sep. 21, 2013 Rise Set
Actual Time 7:23 AM EDT 7:35 PM EDT
Civil Twilight 6:54 AM EDT 8:03 PM EDT
Nautical Twilight 6:21 AM EDT 8:36 PM EDT
Astronomical Twilight 5:47 AM EDT 9:10 PM EDT
Moon 8:40 PM EDT (9/21) 9:45 AM EDT (9/21)
Length of Visible Light 13h 08m
Length of Day
12h 12m
Waning Gibbous, 94% of the Moon is Illuminated
Sep 21
Waning Gibbous
Sep 26
Last Quarter
Oct 4
New
Oct 11
First Quarter
Oct 18
Full

Hourly Weather History & Observations

Time (EDT) Temp. Dew Point Humidity Pressure Visibility Wind Dir Wind Speed Gust Speed Precip Events Conditions
12:14 AM 67.8 °F 65.1 °F 91% 29.74 in 10.0 mi WSW 5.8 mph - N/A   Overcast
12:35 AM 68.0 °F 64.8 °F 89% 29.74 in 10.0 mi WSW 4.6 mph - N/A   Overcast
12:55 AM 67.5 °F 64.4 °F 90% 29.74 in 10.0 mi West 6.9 mph - N/A   Overcast
1:14 AM 67.3 °F 63.9 °F 89% 29.73 in 10.0 mi West 6.9 mph - N/A   Overcast
1:35 AM 66.7 °F 63.0 °F 88% 29.73 in 10.0 mi West 9.2 mph - N/A   Mostly Cloudy
1:55 AM 66.2 °F 61.7 °F 85% 29.73 in 10.0 mi West 8.1 mph - N/A   Mostly Cloudy
2:15 AM 65.7 °F 58.3 °F 77% 29.73 in 10.0 mi West 6.9 mph - N/A   Mostly Cloudy
2:35 AM 64.6 °F 58.8 °F 82% 29.73 in 10.0 mi West 6.9 mph - N/A   Scattered Clouds
2:55 AM 64.0 °F 56.8 °F 77% 29.73 in 10.0 mi West 8.1 mph - N/A   Scattered Clouds
3:15 AM 63.1 °F 57.0 °F 80% 29.72 in 10.0 mi West 5.8 mph - N/A   Clear
3:35 AM 62.6 °F 57.2 °F 82% 29.71 in 10.0 mi West 5.8 mph - N/A   Clear
3:55 AM 62.6 °F 57.6 °F 84% 29.71 in 10.0 mi West 5.8 mph - N/A   Clear
4:15 AM 62.2 °F 58.3 °F 87% 29.71 in 10.0 mi West 5.8 mph - N/A   Mostly Cloudy
4:35 AM 62.1 °F 58.5 °F 88% 29.71 in 10.0 mi West 5.8 mph - N/A   Scattered Clouds
4:55 AM 61.7 °F 58.5 °F 89% 29.70 in 10.0 mi West 5.8 mph - N/A   Clear
5:15 AM 61.3 °F 58.1 °F 89% 29.70 in 10.0 mi WSW 4.6 mph - N/A   Clear
5:35 AM 60.8 °F 57.9 °F 90% 29.69 in 10.0 mi SW 3.5 mph - N/A   Clear
5:55 AM 60.4 °F 57.7 °F 91% 29.69 in 10.0 mi WSW 5.8 mph - N/A   Clear
6:15 AM 60.3 °F 57.6 °F 91% 29.69 in 10.0 mi West 5.8 mph - N/A   Clear
6:34 AM 59.9 °F 57.6 °F 92% 29.69 in 10.0 mi West 5.8 mph - N/A   Clear
6:55 AM 59.5 °F 57.4 °F 93% 29.69 in 10.0 mi West 6.9 mph - N/A   Scattered Clouds
7:14 AM 59.2 °F 56.8 °F 92% 29.69 in 10.0 mi West 5.8 mph - N/A   Scattered Clouds
7:35 AM 59.4 °F 57.4 °F 93% 29.70 in 10.0 mi West 6.9 mph - N/A   Mostly Cloudy
7:55 AM 59.9 °F 57.6 °F 92% 29.71 in 10.0 mi West 8.1 mph - N/A   Overcast
8:14 AM 60.3 °F 57.6 °F 91% 29.71 in 10.0 mi WNW 6.9 mph - N/A   Overcast
8:35 AM 60.3 °F 57.6 °F 91% 29.71 in 10.0 mi WNW 8.1 mph - N/A   Overcast
8:55 AM 60.3 °F 57.4 °F 90% 29.72 in 10.0 mi NW 8.1 mph - N/A   Overcast
9:15 AM 60.1 °F 56.7 °F 88% 29.73 in 10.0 mi NW 10.4 mph 16.1 mph N/A   Overcast
9:35 AM 60.1 °F 55.4 °F 85% 29.74 in 10.0 mi NW 9.2 mph 16.1 mph N/A   Overcast
9:55 AM 61.5 °F 55.0 °F 79% 29.74 in 10.0 mi NW 11.5 mph 16.1 mph N/A   Overcast
10:15 AM 59.5 °F 55.6 °F 87% 29.75 in 5.0 mi NW 9.2 mph - N/A Rain Heavy Rain
10:35 AM 59.2 °F 56.3 °F 90% 29.75 in 10.0 mi NW 9.2 mph - N/A   Overcast
10:55 AM 60.1 °F 55.9 °F 86% 29.76 in 10.0 mi NNW 10.4 mph 18.4 mph N/A   Overcast
11:15 AM 61.2 °F 54.9 °F 80% 29.76 in 10.0 mi NW 8.1 mph 18.4 mph N/A   Overcast
11:35 AM 63.1 °F 53.2 °F 70% 29.76 in 10.0 mi NNW 10.4 mph - N/A   Overcast
11:55 AM 63.5 °F 52.7 °F 68% 29.76 in 10.0 mi WNW 12.7 mph 18.4 mph N/A   Mostly Cloudy
12:15 PM 63.5 °F 50.9 °F 63% 29.77 in 10.0 mi WNW 13.8 mph 17.3 mph N/A   Overcast
12:34 PM 63.7 °F 50.5 °F 62% 29.77 in 10.0 mi NW 9.2 mph 19.6 mph N/A   Mostly Cloudy
12:55 PM 64.9 °F 49.8 °F 58% 29.76 in 10.0 mi WNW 12.7 mph - N/A   Scattered Clouds
1:15 PM 67.5 °F 49.5 °F 52% 29.76 in 10.0 mi NW 9.2 mph - N/A   Scattered Clouds
1:34 PM 65.3 °F 46.6 °F 51% 29.76 in 10.0 mi NNW 6.9 mph 16.1 mph N/A   Scattered Clouds
1:55 PM 66.6 °F 47.5 °F 50% 29.76 in 10.0 mi NW 11.5 mph - N/A   Mostly Cloudy
2:15 PM 68.5 °F 45.7 °F 44% 29.76 in 10.0 mi WNW 12.7 mph 18.4 mph N/A   Mostly Cloudy
2:35 PM 68.0 °F 44.1 °F 42% 29.76 in 10.0 mi WNW 11.5 mph - N/A   Scattered Clouds
2:55 PM 65.5 °F 44.6 °F 47% 29.76 in 10.0 mi WNW 11.5 mph - N/A   Mostly Cloudy
3:15 PM 66.9 °F 44.6 °F 45% 29.76 in 10.0 mi NW 12.7 mph 16.1 mph N/A   Overcast
3:35 PM 67.6 °F 43.0 °F 41% 29.76 in 10.0 mi West 11.5 mph 19.6 mph N/A   Overcast
3:55 PM 66.7 °F 42.4 °F 41% 29.77 in 10.0 mi West 16.1 mph 23.0 mph N/A   Overcast
4:15 PM 66.6 °F 42.3 °F 41% 29.77 in 10.0 mi West 13.8 mph 20.7 mph N/A   Overcast
4:35 PM 66.4 °F 43.0 °F 43% 29.77 in 10.0 mi West 16.1 mph 20.7 mph N/A   Overcast
4:55 PM 64.9 °F 45.0 °F 48% 29.78 in 10.0 mi WNW 12.7 mph 19.6 mph N/A   Overcast
5:14 PM 64.4 °F 42.3 °F 44% 29.79 in 10.0 mi WNW 12.7 mph 21.9 mph N/A   Overcast
5:35 PM 64.8 °F 43.3 °F 46% 29.79 in 10.0 mi WNW 15.0 mph 21.9 mph N/A   Overcast
5:55 PM 61.7 °F 45.5 °F 55% 29.80 in 10.0 mi NW 11.5 mph 19.6 mph N/A   Overcast
6:14 PM 60.3 °F 45.0 °F 57% 29.81 in 10.0 mi NW 11.5 mph 17.3 mph N/A   Overcast
6:35 PM 59.9 °F 45.3 °F 59% 29.82 in 10.0 mi NW 8.1 mph 16.1 mph N/A   Overcast
6:55 PM 59.4 °F 45.7 °F 61% 29.82 in 10.0 mi NNW 6.9 mph - N/A   Overcast
7:15 PM 59.0 °F 46.4 °F 63% 29.83 in 10.0 mi NNW 6.9 mph - N/A   Overcast
7:35 PM 58.6 °F 46.6 °F 64% 29.83 in 10.0 mi NW 9.2 mph - N/A   Overcast
7:55 PM 58.3 °F 45.5 °F 62% 29.84 in 10.0 mi NW 5.8 mph 16.1 mph N/A   Overcast
8:15 PM 58.1 °F 45.0 °F 62% 29.84 in 10.0 mi NW 8.1 mph - N/A   Overcast
8:35 PM 58.1 °F 45.0 °F 62% 29.84 in 10.0 mi NW 6.9 mph - N/A   Overcast
8:55 PM 57.6 °F 43.9 °F 60% 29.86 in 10.0 mi NW 11.5 mph 16.1 mph N/A   Overcast
9:15 PM 57.2 °F 43.7 °F 61% 29.86 in 10.0 mi NW 6.9 mph - N/A   Overcast
9:35 PM 56.5 °F 42.1 °F 59% 29.87 in 10.0 mi NW 8.1 mph - N/A   Overcast
9:54 PM 56.3 °F 41.9 °F 59% 29.87 in 10.0 mi NNW 6.9 mph - N/A   Overcast
10:15 PM 55.4 °F 42.1 °F 61% 29.87 in 10.0 mi NNW 8.1 mph - N/A   Overcast
10:35 PM 55.4 °F 42.8 °F 63% 29.88 in 10.0 mi NW 5.8 mph - N/A   Overcast
10:54 PM 55.0 °F 42.8 °F 63% 29.89 in 10.0 mi NW 5.8 mph - N/A   Overcast
11:15 PM 54.7 °F 43.3 °F 66% 29.89 in 10.0 mi NNW 5.8 mph - N/A   Overcast
11:35 PM 54.5 °F 43.2 °F 66% 29.89 in 10.0 mi NNW 6.9 mph - N/A   Overcast
11:55 PM 54.0 °F 43.2 °F 67% 29.90 in 10.0 mi North 4.6 mph - N/A   Overcast